KD7DVD-1 Weather Reports


Display with metric or nautical units.
time (UTC)temp
F
wind
direction
speed
MPH
gust
MPH
rain 1hr
in
rain 24hr
in
rain mn
in
humidity
%
barometer
mb
20260902013017 67 0.0 4.0 0.00 0.00 0.00 71 1009.3
20260902010017 67 0.0 3.0 0.00 0.00 0.00 71 1009.2
20260902003022 68 0.0 4.0 0.00 0.00 0.00 69 1009.3
20260902000017 69 0.0 5.0 0.00 0.00 0.00 69 1009.2
20260901233016 68 0.0 4.0 0.00 0.00 0.00 68 1009.3
20260901230017 69 0.0 4.0 0.00 0.00 0.00 69 1009.3
20260901223016 68 0.0 2.0 0.00 0.00 0.00 71 1009.4
20260901220016 69 0.0 7.0 0.00 0.00 0.00 70 1009.4
20260901213016 69 0.0 7.0 0.00 0.00 0.00 68 1009.5
20260901210016 70 0.0 4.0 0.00 0.00 0.00 67 1009.7
20260901203016 71 0.0 3.0 0.00 0.00 0.00 66 1009.7
20260901200016 70 0.0 3.0 0.00 0.00 0.00 67 1009.7
20260901193016 69 0.0 4.0 0.00 0.00 0.00 68 1009.7
20260901190016 69 0.0 6.0 0.00 0.00 0.00 71 1010.0
20260901183016 67 0.0 6.0 0.00 0.00 0.00 73 1010.0
20260901180021 66 0.0 3.0 0.00 0.00 0.00 76 1009.9
20260901173016 64 0.0 3.0 0.00 0.00 0.00 79 1009.7
20260901170021 63 0.0 3.0 0.00 0.00 0.00 81 1009.9
20260901163016 62 0.0 5.0 0.00 0.00 0.00 83 1009.9
20260901160015 61 0.0 2.0 0.00 0.00 0.00 85 1010.0
20260901153017 60 0.0 2.0 0.00 0.00 0.00 86 1010.1
20260901150017 59 0.0 1.0 0.00 0.00 0.00 88 1010.2
20260901143017 57 0.0 0.0 0.00 0.00 0.00 90 1009.9
20260901140022 56 0.0 0.0 0.00 0.00 0.00 90 1009.7
20260901133017 56 0.0 0.0 0.00 0.00 0.00 89 1009.6
20260901130017 56 0.0 0.0 0.00 0.00 0.00 88 1009.3
20260901123017 56 0.0 0.0 0.00 0.00 0.00 88 1009.3
20260901120017 56 0.0 0.0 0.00 0.00 0.00 88 1009.1
20260901113017 56 0.0 0.0 0.00 0.00 0.00 87 1008.9
20260901110017 57 0.0 0.0 0.00 0.00 0.00 85 1008.8
20260901103017 57 0.0 0.0 0.00 0.00 0.00 85 1008.8
20260901100017 57 0.0 0.0 0.00 0.00 0.00 85 1008.7
20260901093016 58 0.0 0.0 0.00 0.00 0.00 84 1008.4
20260901090016 58 0.0 0.0 0.00 0.00 0.00 83 1008.3
20260901083022 59 0.0 0.0 0.00 0.00 0.00 82 1008.2
20260901080021 60 0.0 0.0 0.00 0.00 0.00 81 1008.2
20260901073017 60 0.0 0.0 0.00 0.00 0.00 80 1008.2
20260901070016 61 0.0 0.0 0.00 0.00 0.00 79 1008.3
20260901063017 62 0.0 0.0 0.00 0.00 0.00 78 1008.3
20260901060017 62 0.0 0.0 0.00 0.00 0.00 77 1008.3
20260901053018 63 0.0 0.0 0.00 0.00 0.00 74 1008.5
20260901050017 64 0.0 0.0 0.00 0.00 0.00 72 1008.6
20260901043017 65 0.0 0.0 0.00 0.00 0.00 71 1008.6
20260901040018 65 0.0 0.0 0.00 0.00 0.00 70 1008.5
20260901033019 66 0.0 0.0 0.00 0.00 0.00 69 1008.1
20260901030017 68 0.0 1.0 0.00 0.00 0.00 66 1007.8
20260901023017 69 0.0 1.0 0.00 0.00 0.00 63 1007.9
20260901020017 70 0.0 2.0 0.00 0.00 0.00 61 1008.0